Total_Precipitation_Accumulation
0.23 0.25 0.28 0.25 0.25 0.26 0.29 0.38 0.49 0.34 0.09 0.02 0.04 0.06 0.10 0.15 0.20 0.20 0.21 0.22 0.24 0.26 0.28 0.28 0.30 0.41 0.68 1.23 2.12 3.03 3.14 2.37 1.49 0.94 0.78 0.99 1.20 1.31
0.28 0.31 0.33 0.35 0.35 0.32 0.32 0.33 0.39 0.43 0.25 0.04 0.04 0.08 0.13 0.16 0.22 0.19 0.22 0.24 0.22 0.23 0.24 0.26 0.27 0.35 0.51 0.77 1.29 2.11 2.88 3.01 2.39 1.62 1.13 1.04 1.15 1.26
0.31 0.38 0.42 0.45 0.49 0.46 0.44 0.39 0.35 0.38 0.34 0.09 0.03 0.05 0.14 0.19 0.21 0.21 0.23 0.22 0.19 0.20 0.22 0.23 0.25 0.30 0.42 0.60 0.87 1.38 2.11 2.73 2.85 2.38 1.85 1.45 1.27 1.19
0.41 0.43 0.45 0.49 0.54 0.56 0.57 0.50 0.40 0.34 0.33 0.19 0.06 0.05 0.10 0.21 0.26 0.25 0.24 0.22 0.20 0.20 0.22 0.23 0.23 0.27 0.35 0.47 0.65 0.93 1.47 2.06 2.56 2.63 2.30 1.83 1.48 1.37
0.67 0.66 0.61 0.57 0.58 0.58 0.61 0.57 0.48 0.38 0.32 0.25 0.14 0.08 0.10 0.20 0.31 0.34 0.31 0.27 0.23 0.22 0.23 0.23 0.24 0.26 0.30 0.36 0.49 0.67 0.92 1.33 1.78 2.34 2.52 2.24 1.82 1.59
0.72 0.77 0.78 0.80 0.75 0.69 0.66 0.61 0.55 0.47 0.37 0.31 0.22 0.15 0.13 0.19 0.33 0.41 0.37 0.31 0.28 0.25 0.25 0.24 0.25 0.26 0.25 0.24 0.27 0.41 0.64 1.00 1.41 1.87 2.31 2.39 2.09 1.80
0.51 0.55 0.65 0.80 0.86 0.87 0.86 0.75 0.66 0.62 0.52 0.41 0.33 0.25 0.21 0.25 0.36 0.44 0.48 0.43 0.37 0.34 0.31 0.26 0.24 0.22 0.21 0.24 0.28 0.35 0.48 0.65 0.93 1.33 1.76 2.10 2.14 1.95
0.34 0.34 0.37 0.52 0.62 0.69 0.78 0.77 0.77 0.80 0.77 0.65 0.50 0.39 0.31 0.31 0.37 0.48 0.56 0.59 0.52 0.40 0.39 0.37 0.33 0.30 0.25 0.22 0.24 0.27 0.33 0.47 0.62 0.88 1.23 1.60 1.85 1.96
0.19 0.19 0.20 0.29 0.39 0.43 0.49 0.52 0.57 0.69 0.86 0.90 0.81 0.63 0.46 0.36 0.41 0.48 0.55 0.61 0.59 0.54 0.53 0.59 0.56 0.46 0.37 0.33 0.33 0.28 0.29 0.34 0.45 0.60 0.84 1.18 1.49 1.72
0.14 0.12 0.09 0.15 0.28 0.36 0.37 0.37 0.43 0.57 0.81 0.96 1.03 0.93 0.73 0.55 0.50 0.57 0.63 0.61 0.64 0.72 0.72 0.81 0.84 0.69 0.57 0.47 0.40 0.32 0.30 0.30 0.37 0.46 0.61 0.86 1.18 1.44
0.12 0.13 0.08 0.07 0.20 0.24 0.17 0.20 0.25 0.38 0.54 0.73 0.81 0.79 0.73 0.70 0.67 0.68 0.73 0.71 0.83 1.00 0.98 0.98 1.09 1.00 0.86 0.76 0.60 0.45 0.35 0.33 0.34 0.41 0.48 0.63 0.89 1.26
0.08 0.09 0.13 0.13 0.17 0.14 0.08 0.09 0.18 0.27 0.29 0.35 0.41 0.45 0.49 0.54 0.63 0.76 0.88 0.88 1.00 1.22 1.16 1.02 1.20 1.21 1.25 1.14 0.82 0.53 0.42 0.44 0.42 0.43 0.46 0.53 0.71 0.98
0.09 0.10 0.11 0.13 0.11 0.08 0.05 0.06 0.17 0.16 0.14 0.21 0.28 0.33 0.41 0.49 0.61 0.76 0.90 0.96 1.03 1.18 1.15 1.01 1.18 1.14 1.14 1.26 1.10 0.78 0.48 0.43 0.45 0.52 0.56 0.57 0.62 0.68
0.09 0.09 0.10 0.08 0.05 0.03 0.02 0.04 0.04 0.04 0.06 0.12 0.17 0.23 0.34 0.47 0.60 0.74 0.87 0.95 1.02 1.10 1.07 0.93 1.08 1.07 0.91 0.93 1.06 1.03 0.74 0.52 0.43 0.44 0.52 0.69 0.77 0.72
0.17 0.14 0.05 0.02 0.01 0.00 0.01 0.01 0.01 0.02 0.04 0.08 0.13 0.19 0.30 0.42 0.49 0.57 0.69 0.82 0.90 0.99 1.03 0.95 1.00 1.08 0.94 0.83 0.83 0.87 0.87 0.77 0.55 0.46 0.50 0.57 0.63 0.66
0.12 0.09 0.02 0.00 0.00 0.00 0.00 0.00 0.00 0.01 0.04 0.07 0.11 0.15 0.19 0.28 0.37 0.48 0.59 0.72 0.82 0.95 1.04 1.08 1.14 1.22 1.14 0.96 0.82 0.76 0.71 0.80 0.70 0.51 0.49 0.56 0.57 0.49
0.08 0.02 0.00 0.00 0.00 0.00 0.00 0.00 0.00 0.01 0.01 0.03 0.07 0.10 0.14 0.21 0.30 0.41 0.55 0.65 0.77 0.91 1.06 1.24 1.31 1.33 1.38 1.31 1.12 0.89 0.69 0.63 0.62 0.51 0.49 0.61 0.70 0.59
0.04 0.01 0.00 0.00 0.01 0.01 0.01 0.00 0.00 0.01 0.01 0.02 0.04 0.08 0.13 0.20 0.27 0.34 0.46 0.60 0.73 0.84 0.95 1.15 1.29 1.32 1.50 1.69 1.56 1.13 0.81 0.70 0.67 0.58 0.48 0.53 0.73 0.72
0.01 0.01 0.01 0.02 0.02 0.02 0.01 0.01 0.01 0.01 0.01 0.02 0.03 0.06 0.09 0.15 0.21 0.27 0.37 0.49 0.64 0.77 0.87 0.97 1.10 1.20 1.35 1.65 1.87 1.50 1.03 0.81 0.77 0.77 0.66 0.52 0.57 0.67
0.01 0.02 0.03 0.03 0.02 0.02 0.02 0.01 0.01 0.01 0.01 0.01 0.02 0.03 0.06 0.10 0.16 0.22 0.30 0.42 0.54 0.67 0.77 0.87 1.01 1.13 1.16 1.22 1.39 1.59 1.44 1.01 0.79 0.80 0.81 0.71 0.68 0.79
0.02 0.02 0.03 0.04 0.03 0.03 0.02 0.01 0.01 0.01 0.01 0.01 0.01 0.02 0.03 0.07 0.11 0.17 0.23 0.31 0.42 0.54 0.65 0.78 0.94 1.03 1.09 1.02 1.03 1.26 1.48 1.45 1.01 0.71 0.66 0.66 0.73 0.79
0.03 0.03 0.04 0.04 0.04 0.04 0.03 0.02 0.01 0.01 0.01 0.01 0.01 0.01 0.02 0.04 0.08 0.12 0.17 0.23 0.33 0.45 0.57 0.68 0.80 0.94 1.10 1.16 1.17 1.16 1.29 1.49 1.47 1.13 0.77 0.52 0.41 0.46
0.06 0.05 0.06 0.06 0.05 0.04 0.03 0.02 0.02 0.01 0.01 0.01 0.01 0.01 0.01 0.02 0.04 0.07 0.11 0.17 0.24 0.34 0.46 0.59 0.73 0.89 1.11 1.24 1.26 1.15 1.09 1.20 1.29 1.22 1.18 0.92 0.53 0.31